Location: Warszawa
(52.2500°N, 21.0000°E)
Time: 14:05:52
(UTC+01:00)

Vanguard 2 - Pass Details

Date: 09 February 2023
Orbit: 553 x 2927 km, 32.9° (Epoch: 24 March)

Event Time Altitude Azimuth Distance (km) Brightness Sun altitude
Rises 21:25:11 0° 241° (WSW) 5,018 11.9 -42.6°
Reaches altitude 10° 21:28:30 10° 232° (SW) 4,339 11.4 -43.0°
Enters shadow 21:32:53 24° 214° (SW) 3,705 10.8 -43.5°
Maximum altitude 21:39:18 34° 174° (S) 3,555 - -44.2°
Drops below altitude 10° 21:53:32 10° 118° (ESE) 5,719 - -45.7°
Sets 21:58:45 0° 111° (ESE) 6,780 - -46.3°
